SCP
0 0 0 0 0 0 0 0 0 0 0 0 0 0 0 0 0 0 0 0 0 0 1 1 1 2 1 1 1 1 1 1 1 1 1 1 0 0 0 1 1 1 1
0 0 0 0 0 0 0 0 0 0 0 0 0 0 0 0 0 0 0 0 0 0 1 1 1 1 1 1 1 1 1 1 1 1 1 1 0 0 0 0 1 1 1
0 0 0 0 0 0 0 0 0 0 0 0 0 0 0 0 0 0 0 0 0 0 0 1 1 1 1 1 1 1 1 1 1 1 1 1 0 0 0 0 1 1 1
0 0 0 0 0 0 0 0 0 0 0 0 0 0 0 0 0 0 0 0 0 0 0 0 0 1 1 1 1 1 1 1 1 1 1 1 0 0 0 0 0 1 1
0 0 0 0 0 0 0 0 0 0 0 0 0 0 0 0 0 0 0 0 0 0 0 0 0 0 1 1 1 1 1 1 1 1 1 1 1 0 0 0 0 1 1
0 0 0 0 0 0 0 0 0 0 0 0 0 0 0 0 0 0 0 0 0 0 0 0 0 0 0 0 1 1 1 1 1 1 1 1 1 0 0 0 0 1 1
0 0 0 0 0 0 0 0 0 0 0 0 0 0 0 0 0 0 0 0 0 0 0 0 0 0 0 0 0 1 1 1 1 1 1 1 1 1 1 1 1 1 1
0 0 0 0 0 0 0 0 0 0 0 0 0 0 0 0 0 0 0 0 0 0 0 0 0 0 0 0 0 0 1 1 1 1 1 1 1 1 1 1 1 1 1
0 0 0 0 0 0 0 0 0 0 0 0 0 0 0 0 0 0 0 0 0 0 0 0 0 0 0 0 0 0 0 0 1 1 1 1 1 1 1 1 1 1 1
0 0 0 0 0 0 0 0 0 0 0 0 0 0 0 0 0 0 0 0 0 0 0 0 0 0 0 0 0 0 0 0 0 1 1 1 1 1 1 1 1 1 0
0 0 0 0 0 0 0 0 0 0 0 0 0 0 0 0 0 0 0 0 0 0 0 0 0 0 0 0 0 0 0 0 0 0 1 1 1 1 1 1 1 0 0
0 0 0 0 0 0 0 0 0 0 0 0 0 0 0 0 0 0 0 0 0 0 0 0 0 0 0 0 0 0 0 0 0 0 1 1 1 1 1 1 0 0 0
0 0 0 0 0 0 0 0 0 0 0 0 0 0 0 0 0 0 0 0 0 0 0 0 0 0 0 0 0 0 0 0 0 0 0 1 1 1 1 1 0 0 0
0 0 0 0 0 0 0 0 0 0 0 0 0 0 0 0 0 0 0 0 0 0 0 0 0 0 0 0 0 0 0 0 0 0 0 0 0 0 0 0 0 0 0
0 0 0 0 0 0 0 0 0 0 0 0 0 0 0 0 0 0 0 0 0 0 0 0 0 0 0 0 0 0 0 0 0 0 0 0 0 0 0 0 0 0 0
0 0 0 0 0 0 0 0 0 0 0 0 0 0 0 0 0 0 0 0 0 0 0 0 0 0 0 0 0 0 0 0 0 0 0 0 0 0 0 0 0 0 0
0 0 0 0 0 0 0 0 0 0 0 0 0 0 0 0 0 0 0 0 0 0 0 0 0 0 0 0 0 0 0 0 0 0 0 0 0 0 0 0 0 0 0
0 0 0 0 0 0 0 0 0 0 0 0 0 0 0 0 0 0 0 0 0 0 0 0 0 0 0 0 0 0 0 0 0 0 0 0 0 0 0 0 0 0 0
0 0 0 0 0 0 0 0 0 0 0 0 0 0 0 0 0 0 0 0 0 0 0 0 0 0 0 0 0 0 0 0 0 0 0 0 0 0 0 0 0 0 0
0 0 0 0 0 0 0 0 0 0 0 0 0 0 0 0 0 0 0 0 0 0 0 0 0 0 0 0 0 0 0 0 0 0 0 0 0 0 0 0 0 0 0
0 0 0 0 0 0 0 0 0 0 0 0 0 0 0 0 0 0 0 0 0 0 0 0 0 0 0 0 0 0 0 0 0 0 0 0 0 0 0 0 0 0 0
0 0 0 0 0 0 0 0 0 0 0 0 0 0 0 0 0 0 0 0 0 0 0 0 0 0 0 0 0 0 0 0 0 0 0 0 0 0 0 0 0 0 0
0 0 0 0 0 0 0 0 0 0 0 0 0 0 0 0 0 0 0 0 0 0 0 0 0 0 0 0 0 0 0 0 0 0 0 0 0 0 0 0 0 0 0
0 0 0 0 0 0 0 0 0 0 0 0 0 0 0 0 0 0 0 0 0 0 0 0 0 0 0 0 0 0 0 0 0 0 0 0 0 0 0 0 0 0 0
0 0 0 0 0 0 0 0 0 0 0 0 0 0 0 0 0 0 0 0 0 0 0 0 0 0 0 0 0 0 0 0 0 0 0 0 0 0 0 0 0 0 0
0 0 0 0 0 0 0 0 0 0 0 0 0 0 0 0 0 0 0 0 0 0 0 0 0 0 0 0 0 0 0 0 0 0 0 0 0 0 0 0 0 0 0
Wind_Speed
2 2 2 2 2 2 2 2 2 3 3 3 3 3 2 2 2 2 2 5 5 3 1 1 0 1 3 3 3 3 3 3 3 3 3 3 3 3 3 4 4 4 5
1 1 2 2 2 2 2 2 2 2 2 2 3 3 2 2 2 2 2 3 5 5 2 1 1 0 2 3 3 3 3 3 3 3 3 3 2 3 2 2 2 3 4
1 1 1 2 2 2 2 2 2 2 2 2 3 3 2 2 2 2 2 2 2 4 4 2 2 1 0 2 3 3 3 3 3 3 3 3 2 2 2 2 2 2 3
2 1 1 1 1 1 1 1 2 2 2 2 2 2 2 2 2 2 2 2 2 2 4 4 3 2 2 1 2 3 3 3 3 3 3 2 2 2 2 2 2 2 2
3 1 1 1 1 1 1 1 1 1 1 2 2 2 2 2 2 2 2 2 2 2 2 4 4 3 3 3 2 2 2 3 2 3 3 3 3 3 3 3 2 2 2
3 2 1 1 1 1 1 1 1 2 1 1 2 2 2 2 1 2 2 2 2 2 2 2 2 3 4 3 3 3 2 3 3 3 3 3 4 4 4 3 3 3 2
3 2 1 1 1 0 0 0 1 1 1 1 1 2 2 1 1 1 2 2 2 2 2 2 2 2 2 3 4 4 3 2 3 3 4 4 4 4 5 4 4 3 2
3 2 2 1 1 1 0 0 1 1 1 1 1 1 2 2 2 2 2 2 2 2 2 2 2 2 1 1 3 4 4 3 2 2 3 4 4 4 4 5 4 4 2
3 3 2 1 1 1 1 1 1 1 1 0 0 1 1 2 2 2 1 1 2 2 2 2 2 2 2 2 2 3 4 4 3 3 3 3 4 5 5 5 5 5 4
4 3 2 2 1 1 0 1 0 1 2 1 0 0 0 1 1 2 2 1 2 2 2 2 2 2 2 2 2 4 4 4 4 4 4 4 4 4 5 5 5 4 5
4 4 3 2 2 1 1 1 1 1 1 2 1 1 0 0 1 1 2 2 2 2 2 2 1 1 2 2 2 3 4 4 4 5 5 5 4 4 4 4 3 4 4
3 4 4 2 2 2 1 1 1 1 1 2 2 1 1 1 1 1 2 2 3 2 2 2 1 1 1 1 3 4 4 4 4 5 5 5 4 4 4 4 4 3 4
3 4 4 3 3 3 2 2 1 1 2 2 2 2 2 2 1 2 2 2 3 3 2 2 1 1 1 1 2 5 5 5 5 5 5 5 4 4 4 4 4 4 4
4 4 4 4 4 3 3 2 2 2 2 2 3 3 2 2 2 2 2 2 2 3 2 3 1 1 1 1 3 4 3 6 6 5 5 5 4 4 4 4 4 5 4
4 5 5 4 4 3 3 3 2 3 3 3 3 3 3 3 2 3 2 3 3 3 4 3 2 1 1 1 3 2 2 5 6 6 6 5 4 4 4 4 5 5 5
5 5 5 5 4 4 3 2 3 3 3 3 3 3 3 3 3 3 3 3 3 4 5 3 2 2 2 2 4 3 3 6 7 6 6 5 5 5 5 5 5 5 5
5 5 5 5 5 4 3 3 3 3 4 4 3 3 4 4 3 3 3 3 4 4 5 4 2 2 2 3 3 2 3 3 3 6 6 5 6 6 5 5 5 6 6
5 5 5 5 5 5 4 4 4 4 4 4 4 4 5 4 5 4 3 4 4 4 4 6 3 3 3 3 3 3 3 3 3 5 6 5 5 5 6 6 6 6 6
5 5 5 5 5 5 5 5 5 5 5 5 5 5 5 5 5 4 4 4 4 4 4 4 5 3 3 2 3 3 3 2 3 4 5 6 6 6 6 7 7 7 6
5 5 5 5 6 6 6 6 5 5 5 5 5 5 5 5 6 5 5 5 4 4 4 4 4 3 3 2 2 3 3 2 3 3 4 4 5 6 6 7 7 7 6
5 5 5 5 6 5 5 6 6 6 6 6 5 5 5 6 8 7 5 4 4 4 4 4 4 3 3 3 3 2 4 3 3 2 2 3 3 3 3 5 6 6 5
5 5 5 5 6 5 9 11 9 6 5 6 6 5 5 6 8 10 11 10 8 6 6 5 5 5 5 4 3 3 3 3 4 2 2 3 2 3 3 3 5 6 5
5 5 5 5 6 7 11 12 12 7 5 5 5 5 5 5 7 5 8 10 10 12 11 7 7 7 6 5 5 5 5 5 5 3 2 4 2 3 3 4 7 7 7
4 5 6 6 6 8 12 12 13 7 5 5 5 5 5 5 6 6 5 6 6 7 8 7 7 7 6 5 6 6 5 5 4 3 3 4 3 3 3 3 7 9 8
4 5 5 5 6 8 11 12 11 5 5 5 5 5 5 5 9 10 6 6 6 6 8 10 10 9 10 10 8 4 4 4 4 3 3 3 2 2 2 3 5 7 7
5 5 6 5 6 6 11 12 11 4 5 5 4 5 7 8 10 10 6 5 6 6 5 5 6 7 6 7 9 6 5 5 4 3 3 3 2 1 2 2 2 2 3
Wind_Direction
43 30 26 29 28 27 34 29 34 37 30 19 20 30 31 27 15 6 353 0 359 357 13 30 72 171 162 167 168 164 151 136 123 114 110 120 118 114 111 109 112 118 124
47 51 35 27 25 18 26 35 29 28 25 23 18 15 11 10 8 3 357 350 358 0 359 354 349 239 200 185 168 166 160 152 142 138 133 132 131 126 121 135 126 133 145
33 50 52 35 15 14 25 39 37 29 25 22 12 6 11 11 5 359 356 357 346 349 352 354 356 8 276 197 184 179 175 174 163 152 145 138 133 141 149 141 149 137 151
12 43 56 31 14 26 37 48 52 34 19 14 359 348 357 355 1 357 2 4 2 348 343 354 8 9 12 3 222 203 194 185 180 172 170 164 158 159 170 174 183 184 160
2 9 46 17 23 36 33 27 46 50 18 3 350 346 352 348 347 358 9 2 358 355 343 340 353 0 1 347 333 261 209 182 174 182 185 190 188 181 181 188 189 201 185
357 2 17 6 25 48 28 34 67 45 41 1 352 349 337 332 352 5 356 353 357 1 355 354 355 347 353 338 328 323 261 209 196 191 195 202 204 195 197 200 201 210 207
350 355 357 359 360 19 355 18 94 71 35 14 24 349 336 345 22 9 356 12 8 359 6 11 9 8 346 342 343 337 327 266 220 215 212 210 212 208 207 211 213 209 218
346 343 347 329 330 320 21 38 101 97 55 36 61 20 331 331 354 356 355 21 360 352 5 4 6 8 350 341 329 339 331 315 281 238 228 226 220 219 217 218 216 210 214
342 339 327 317 312 284 244 233 185 148 160 171 58 146 170 248 317 317 329 359 346 351 348 350 359 355 353 355 329 332 333 320 292 272 247 242 232 227 224 219 219 219 214
336 338 333 339 320 303 286 257 257 202 165 185 243 284 208 175 197 303 308 321 332 337 336 338 335 340 352 347 326 328 327 315 293 278 267 256 248 236 226 219 219 224 221
335 336 333 338 328 317 307 298 290 250 201 202 201 217 227 358 196 215 277 302 314 299 302 301 305 314 332 328 312 326 329 314 291 279 271 266 256 250 241 235 237 238 234
329 339 336 329 315 306 291 278 255 253 238 228 219 207 198 198 203 210 244 277 284 285 285 273 275 292 310 316 317 330 325 323 313 294 279 271 264 257 256 255 257 256 252
324 327 329 323 314 300 291 282 265 262 248 237 227 226 228 231 219 217 232 265 277 288 285 267 250 276 320 321 309 332 323 318 314 304 291 282 282 274 270 266 266 267 267
306 314 313 312 308 310 311 294 274 264 252 242 245 238 235 236 226 219 217 225 269 277 272 266 255 241 298 300 314 326 313 312 308 303 293 284 284 284 280 273 270 273 274
315 324 318 312 309 305 303 301 281 267 253 241 242 242 239 238 232 230 222 211 221 251 258 251 256 265 292 288 308 306 297 297 301 294 291 287 281 275 274 270 269 275 275
324 327 324 318 309 304 302 291 287 280 264 255 244 242 248 237 230 230 225 228 227 233 254 250 246 269 280 295 297 291 280 293 289 290 286 274 266 262 260 259 262 266 266
328 325 321 319 314 310 307 295 286 285 278 270 261 249 253 245 233 228 229 227 228 227 247 264 251 260 257 266 285 281 278 271 274 283 280 272 263 258 253 254 259 262 262
325 322 321 319 317 317 308 292 286 285 274 272 266 255 254 251 240 230 227 229 229 229 234 256 260 254 252 259 267 271 284 287 273 275 272 269 264 258 253 252 252 254 259
330 328 329 323 318 315 308 297 283 278 270 266 265 261 259 250 247 241 232 232 230 234 232 245 257 252 254 265 274 281 281 275 283 280 269 260 256 258 257 254 253 252 252
329 328 327 321 317 313 306 304 299 287 276 272 267 262 259 251 246 241 237 233 230 230 236 242 249 252 250 251 249 262 278 268 273 285 271 266 262 264 261 257 252 249 243
326 323 322 320 319 312 307 309 301 296 287 280 273 265 260 259 258 252 246 233 226 226 233 240 243 245 241 235 239 246 265 278 267 249 255 267 267 262 258 255 251 238 234
324 323 320 317 315 313 317 316 313 301 294 287 282 274 265 263 265 265 261 254 242 236 231 236 242 239 241 236 235 241 254 265 270 239 245 272 251 250 254 242 242 239 238
322 320 316 315 311 309 316 317 315 310 298 289 282 274 274 271 275 265 264 261 257 256 250 242 240 240 241 230 225 238 240 245 253 242 243 267 251 260 258 249 247 243 240
313 312 311 310 308 310 318 319 318 314 302 295 289 276 270 268 264 263 260 259 254 253 254 246 239 241 244 234 225 231 235 251 267 254 228 253 251 252 263 251 247 244 237
306 306 305 309 308 310 317 319 320 311 304 304 298 292 285 275 273 274 266 261 267 265 265 260 254 252 251 249 239 228 227 233 254 248 218 232 242 259 255 247 248 243 236
299 305 308 309 306 305 314 319 322 310 306 305 300 294 292 295 293 289 271 260 266 269 269 268 258 261 258 253 251 233 222 229 243 247 211 206 215 219 263 241 239 242 230